Flag for Cote d'Ivoire (Ivory Coast) Weather past 2 weeks in Abidjan, Cote d'Ivoire (Ivory Coast)

Now
77 °F

Broken clouds.


Feels Like: 78 °F
Forecast: N/A
Wind: 7 mph from Southwest

Location: Abidjan Airport

Current Time: Aug 2, 2015 at 7:14:35 PM

Latest Report: Aug 2, 2015 at 6:30 PM


Visibility: N/A

Pressure: 29.92 "Hg

Humidity: 89%

Dew point: 73 °F

Location of AbidjanLocation

Historic Weather in Abidjan — Graph

°F

Abidjan temperature yesterday

Maximum temperature yesterday: 81 °F (at 12:00 PM)
Minimum temperature yesterday: 73 °F (at 1:00 AM)
Average temperature yesterday: 76 °F

Past Weeks' High & Low Weather Summary

 TemperatureHumidityPressure
High82 °F (Jul 19, 1:30 PM)100% (Jul 19, 3:06 AM)30.07 "Hg (Jul 19, 3:06 AM)
Low72 °F (Jul 23, 5:00 AM)70% (Jul 24, 12:30 PM)29.89 "Hg (Jul 19, 4:30 PM)
Average77 °F88%29.97 "Hg
* Reported Jul 18 6:00 PM — Aug 2 6:00 PM, Abidjan, Weather by CustomWeather, © 2015

Note: Actual official high and low records may vary slightly from our data, if they occured in-between our weather recording intervals... More about our weather records

Advertising

Abidjan weather history for previous 24 hours

 ConditionsComfort  
Time TempWeatherWind HumidityBarometerVisibility
6:00 PM
Sun, Aug 2
77 °FBroken clouds.8 mph89%29.92 "HgN/A
5:30 PM77 °FScattered clouds.8 mph89%29.89 "HgN/A
5:00 PM79 °FScattered clouds.10 mph84%29.89 "HgN/A
4:30 PM79 °FScattered clouds.10 mph84%29.92 "HgN/A
4:00 PM81 °FScattered clouds.10 mph74%29.92 "HgN/A
3:30 PM81 °FScattered clouds.10 mph79%29.92 "HgN/A
3:00 PM81 °FScattered clouds.10 mph79%29.92 "HgN/A
2:30 PM81 °FScattered clouds.10 mph79%29.95 "HgN/A
2:00 PM81 °FScattered clouds.10 mph79%29.95 "HgN/A
1:30 PM81 °FScattered clouds.8 mph79%29.95 "HgN/A
1:00 PM81 °FScattered clouds.8 mph79%29.98 "HgN/A
12:30 PM81 °FScattered clouds.7 mph84%29.98 "HgN/A
12:00 PM81 °FScattered clouds.8 mph84%29.98 "HgN/A
11:30 AM81 °FBroken clouds.7 mph84%29.98 "HgN/A
11:00 AM79 °FBroken clouds.6 mph89%29.98 "HgN/A
10:30 AM79 °FBroken clouds.7 mph84%30.01 "HgN/A
10:00 AM79 °FPartly sunny.6 mph84%30.01 "HgN/A
9:30 AM77 °FPartly sunny.5 mph89%29.98 "HgN/A
9:00 AM77 °FPartly sunny.3 mph94%29.98 "HgN/A
8:30 AM75 °FPartly sunny.5 mph100%29.98 "Hg4 mi
8:00 AM75 °FPartly sunny.3 mph100%29.95 "Hg4 mi
7:30 AM73 °FPartly sunny.2 mph100%29.95 "Hg4 mi
7:00 AM73 °FPartly sunny.5 mph100%29.92 "Hg4 mi
6:30 AMN/APassing clouds.3 mphN/AN/A4 mi
6:00 AM73 °FPassing clouds.3 mph100%29.92 "Hg4 mi
5:30 AM72 °FPartly cloudy.2 mph100%29.92 "Hg4 mi
5:00 AM72 °FFog.2 mph100%29.92 "Hg1 mi
4:30 AM72 °FPassing clouds.1 mph100%29.92 "HgN/A
4:00 AM73 °FPassing clouds.1 mph100%29.92 "Hg5 mi
3:00 AM73 °FPassing clouds.3 mph100%29.92 "Hg4 mi
2:30 AM73 °FFog.5 mph100%29.92 "Hg2 mi
2:00 AM73 °FPassing clouds.6 mph100%29.92 "HgN/A
1:30 AM73 °FPassing clouds.5 mph100%29.92 "HgN/A
1:00 AM73 °FPassing clouds.6 mph100%29.92 "HgN/A
12:30 AM73 °FPassing clouds.2 mph100%29.95 "HgN/A
12:00 AM73 °FPassing clouds.2 mph100%29.95 "HgN/A
11:30 PM
Sat, Aug 1
75 °FPassing clouds.3 mph94%29.95 "HgN/A
11:00 PM73 °FPassing clouds.5 mph100%29.95 "HgN/A
10:00 PM75 °FPassing clouds.5 mph94%29.95 "HgN/A
9:30 PM75 °FPassing clouds.5 mph94%29.95 "HgN/A
9:00 PM75 °FPassing clouds.5 mph94%29.92 "HgN/A
8:30 PM75 °FPassing clouds.5 mph94%29.92 "HgN/A
8:00 PM75 °FPassing clouds.6 mph94%29.92 "HgN/A
7:30 PM75 °FPassing clouds.7 mph94%29.92 "HgN/A
7:00 PM75 °FPassing clouds.6 mph94%29.92 "HgN/A
Weather by CustomWeather, © 2015

See weather overviewHow to use our weather pages